| time (UTC) | temp C | wind direction | speed KPH | gust KPH | rain 1hr cm | rain 24hr cm | rain mn cm | humidity % | barometer mb |
| 20260506143205 | 22 | 180 | 11.3 | 25.7 | 0.00 | 0.00 | 0.00 | 58 | 1005.7 |
| 20260506142705 | 21 | 191 | 8.0 | 25.7 | 0.00 | 0.00 | 0.00 | 59 | 1005.9 |
| 20260506142205 | 21 | 187 | 11.3 | 25.7 | 0.00 | 0.00 | 0.00 | 59 | 1006.0 |
| 20260506141205 | 22 | 188 | 6.4 | 24.1 | 0.00 | 0.00 | 0.00 | 59 | 1005.8 |
| 20260506140705 | 22 | 181 | 4.8 | 24.1 | 0.00 | 0.00 | 0.00 | 59 | 1005.9 |
| 20260506140205 | 21 | 129 | 8.0 | 22.5 | 0.00 | 0.00 | 0.00 | 60 | 1005.9 |
| 20260506135705 | 21 | 185 | 8.0 | 16.1 | 0.00 | 0.00 | 0.00 | 60 | 1005.9 |
| 20260506135205 | 21 | 200 | 6.4 | 20.9 | 0.00 | 0.00 | 0.00 | 61 | 1005.9 |
| 20260506134704 | 21 | 126 | 9.7 | 25.7 | 0.00 | 0.00 | 0.00 | 62 | 1006.0 |
| 20260506134205 | 21 | 172 | 11.3 | 25.7 | 0.00 | 0.00 | 0.00 | 62 | 1006.0 |
| 20260506133705 | 21 | 175 | 11.3 | 20.9 | 0.00 | 0.00 | 0.00 | 62 | 1005.9 |
| 20260506133206 | 21 | 181 | 9.7 | 25.7 | 0.00 | 0.00 | 0.00 | 61 | 1006.0 |
| 20260506132705 | 21 | 113 | 11.3 | 25.7 | 0.00 | 0.00 | 0.00 | 62 | 1006.0 |
| 20260506132205 | 20 | 192 | 8.0 | 19.3 | 0.00 | 0.00 | 0.00 | 63 | 1006.2 |
| 20260506131705 | 20 | 144 | 9.7 | 19.3 | 0.00 | 0.00 | 0.00 | 64 | 1006.1 |
| 20260506130705 | 20 | 134 | 4.8 | 16.1 | 0.00 | 0.00 | 0.00 | 64 | 1005.9 |
| 20260506130205 | 20 | 178 | 8.0 | 19.3 | 0.00 | 0.00 | 0.00 | 65 | 1005.9 |
| 20260506125705 | 20 | 161 | 8.0 | 19.3 | 0.00 | 0.00 | 0.00 | 65 | 1005.9 |
| 20260506125205 | 20 | 142 | 8.0 | 19.3 | 0.00 | 0.00 | 0.00 | 66 | 1005.9 |
| 20260506124705 | 20 | 145 | 8.0 | 19.3 | 0.00 | 0.00 | 0.00 | 67 | 1005.9 |
| 20260506124205 | 19 | 153 | 6.4 | 19.3 | 0.00 | 0.00 | 0.00 | 67 | 1005.9 |
| 20260506123207 | 19 | 172 | 3.2 | 19.3 | 0.00 | 0.00 | 0.00 | 68 | 1006.1 |
| 20260506122705 | 19 | 167 | 3.2 | 20.9 | 0.00 | 0.00 | 0.00 | 68 | 1006.1 |
| 20260506122205 | 18 | 82 | 8.0 | 20.9 | 0.00 | 0.00 | 0.00 | 69 | 1006.1 |
| 20260506121705 | 18 | 168 | 6.4 | 14.5 | 0.00 | 0.00 | 0.00 | 69 | 1006.2 |
| 20260506121205 | 18 | 92 | 3.2 | 20.9 | 0.00 | 0.00 | 0.00 | 69 | 1006.4 |
| 20260506120205 | 18 | 146 | 3.2 | 19.3 | 0.00 | 0.00 | 0.00 | 71 | 1006.4 |
| 20260506115705 | 18 | 88 | 9.7 | 19.3 | 0.00 | 0.00 | 0.00 | 71 | 1006.5 |
| 20260506115205 | 18 | 141 | 3.2 | 16.1 | 0.00 | 0.00 | 0.00 | 71 | 1006.4 |
| 20260506114705 | 18 | 179 | 4.8 | 16.1 | 0.00 | 0.00 | 0.00 | 72 | 1006.5 |
| 20260506114205 | 18 | 109 | 4.8 | 19.3 | 0.00 | 0.00 | 0.00 | 72 | 1006.5 |
| 20260506113705 | 18 | 130 | 4.8 | 19.3 | 0.00 | 0.00 | 0.00 | 72 | 1006.5 |
| 20260506112705 | 17 | 146 | 4.8 | 12.9 | 0.00 | 0.00 | 0.00 | 73 | 1006.6 |
| 20260506112205 | 17 | 106 | 4.8 | 12.9 | 0.00 | 0.00 | 0.00 | 74 | 1006.6 |
| 20260506111205 | 17 | 168 | 8.0 | 14.5 | 0.00 | 0.00 | 0.00 | 74 | 1006.4 |
| 20260506110705 | 17 | 138 | 8.0 | 16.1 | 0.00 | 0.00 | 0.00 | 74 | 1006.4 |
| 20260506110205 | 17 | 139 | 6.4 | 16.1 | 0.00 | 0.00 | 0.00 | 75 | 1006.3 |
| 20260506105705 | 17 | 133 | 8.0 | 16.1 | 0.00 | 0.00 | 0.00 | 75 | 1006.3 |
| 20260506105204 | 17 | 132 | 3.2 | 12.9 | 0.00 | 0.00 | 0.00 | 75 | 1006.3 |
| 20260506104206 | 17 | 152 | 4.8 | 12.9 | 0.00 | 0.00 | 0.00 | 75 | 1006.5 |
| 20260506103706 | 17 | 134 | 4.8 | 14.5 | 0.00 | 0.00 | 0.00 | 76 | 1006.4 |
| 20260506103205 | 17 | 135 | 6.4 | 14.5 | 0.00 | 0.00 | 0.00 | 76 | 1006.3 |
| 20260506102205 | 17 | 158 | 6.4 | 14.5 | 0.00 | 0.00 | 0.00 | 76 | 1006.3 |
| 20260506101705 | 17 | 144 | 8.0 | 16.1 | 0.00 | 0.00 | 0.00 | 76 | 1006.3 |
| 20260506101205 | 17 | 138 | 8.0 | 19.3 | 0.00 | 0.00 | 0.00 | 76 | 1006.2 |
| 20260506100704 | 17 | 132 | 4.8 | 19.3 | 0.00 | 0.00 | 0.00 | 76 | 1006.2 |
| 20260506095204 | 17 | 151 | 4.8 | 16.1 | 0.00 | 0.00 | 0.00 | 76 | 1006.2 |
| 20260506094704 | 17 | 159 | 9.7 | 19.3 | 0.00 | 0.00 | 0.00 | 75 | 1006.2 |
| 20260506094204 | 17 | 154 | 8.0 | 19.3 | 0.00 | 0.00 | 0.00 | 76 | 1006.2 |
| 20260506093705 | 17 | 142 | 8.0 | 19.3 | 0.00 | 0.00 | 0.00 | 76 | 1006.2 |
| 20260506093205 | 17 | 153 | 6.4 | 16.1 | 0.00 | 0.00 | 0.00 | 76 | 1006.1 |
| 20260506092705 | 17 | 139 | 8.0 | 19.3 | 0.00 | 0.00 | 0.00 | 76 | 1006.2 |
| 20260506092205 | 17 | 150 | 8.0 | 19.3 | 0.00 | 0.00 | 0.00 | 75 | 1006.2 |
| 20260506091705 | 17 | 147 | 9.7 | 19.3 | 0.00 | 0.00 | 0.00 | 75 | 1006.2 |
| 20260506091205 | 17 | 96 | 8.0 | 16.1 | 0.00 | 0.00 | 0.00 | 75 | 1006.2 |
| 20260506090705 | 17 | 143 | 4.8 | 16.1 | 0.00 | 0.00 | 0.00 | 75 | 1006.3 |
| 20260506090204 | 17 | 147 | 8.0 | 16.1 | 0.00 | 0.00 | 0.00 | 75 | 1006.3 |
| 20260506085705 | 17 | 148 | 4.8 | 19.3 | 0.00 | 0.00 | 0.00 | 75 | 1006.3 |
| 20260506085205 | 17 | 145 | 8.0 | 19.3 | 0.00 | 0.00 | 0.00 | 75 | 1006.4 |
| 20260506084705 | 17 | 136 | 8.0 | 19.3 | 0.00 | 0.00 | 0.00 | 75 | 1006.4 |
| 20260506084205 | 17 | 125 | 9.7 | 19.3 | 0.00 | 0.00 | 0.00 | 75 | 1006.4 |
| 20260506083705 | 17 | 148 | 9.7 | 19.3 | 0.00 | 0.00 | 0.00 | 75 | 1006.4 |
| 20260506083205 | 17 | 148 | 9.7 | 19.3 | 0.00 | 0.00 | 0.00 | 75 | 1006.3 |
| 20260506082704 | 17 | 162 | 9.7 | 19.3 | 0.00 | 0.00 | 0.00 | 75 | 1006.4 |
| 20260506082205 | 17 | 146 | 8.0 | 19.3 | 0.00 | 0.00 | 0.00 | 75 | 1006.5 |
| 20260506081704 | 17 | 119 | 9.7 | 19.3 | 0.00 | 0.00 | 0.00 | 75 | 1006.5 |
| 20260506081204 | 17 | 141 | 6.4 | 19.3 | 0.00 | 0.00 | 0.00 | 74 | 1006.5 |
| 20260506080704 | 17 | 130 | 9.7 | 19.3 | 0.00 | 0.00 | 0.00 | 74 | 1006.5 |
| 20260506080205 | 17 | 139 | 8.0 | 19.3 | 0.00 | 0.00 | 0.00 | 74 | 1006.5 |
| 20260506073204 | 18 | 146 | 11.3 | 20.9 | 0.00 | 0.00 | 0.00 | 72 | 1006.6 |
| 20260506072705 | 18 | 169 | 9.7 | 20.9 | 0.00 | 0.00 | 0.00 | 71 | 1006.5 |
| 20260506072205 | 18 | 146 | 11.3 | 19.3 | 0.00 | 0.00 | 0.00 | 71 | 1006.6 |
| 20260506071205 | 18 | 144 | 11.3 | 20.9 | 0.00 | 0.00 | 0.00 | 70 | 1006.7 |
| 20260506070705 | 18 | 121 | 9.7 | 20.9 | 0.00 | 0.00 | 0.00 | 70 | 1006.8 |
| 20260506070205 | 18 | 142 | 8.0 | 16.1 | 0.00 | 0.00 | 0.00 | 70 | 1006.7 |
| 20260506062205 | 19 | 172 | 4.8 | 14.5 | 0.00 | 0.00 | 0.00 | 67 | 1006.7 |
| 20260506061706 | 19 | 152 | 4.8 | 19.3 | 0.00 | 0.00 | 0.00 | 67 | 1006.7 |
| 20260506060704 | 19 | 136 | 8.0 | 16.1 | 0.00 | 0.00 | 0.00 | 66 | 1006.8 |
| 20260506060204 | 19 | 148 | 9.7 | 16.1 | 0.00 | 0.00 | 0.00 | 66 | 1006.8 |
| 20260506051204 | 19 | 176 | 4.8 | 12.9 | 0.00 | 0.00 | 0.00 | 64 | 1007.3 |
| 20260506050704 | 19 | 145 | 3.2 | 9.7 | 0.00 | 0.00 | 0.00 | 64 | 1007.3 |
| 20260506050204 | 19 | 144 | 4.8 | 12.9 | 0.00 | 0.00 | 0.00 | 64 | 1007.3 |
| 20260506044707 | 20 | 144 | 6.4 | 12.9 | 0.00 | 0.00 | 0.00 | 62 | 1007.3 |
| 20260506044206 | 20 | 137 | 3.2 | 11.3 | 0.00 | 0.00 | 0.00 | 62 | 1007.4 |
| 20260506043707 | 20 | 144 | 3.2 | 14.5 | 0.00 | 0.00 | 0.00 | 61 | 1007.3 |
| 20260506043206 | 20 | 86 | 4.8 | 14.5 | 0.00 | 0.00 | 0.00 | 61 | 1007.3 |
| 20260506042706 | 20 | 152 | 4.8 | 14.5 | 0.00 | 0.00 | 0.00 | 60 | 1007.3 |
| 20260506042206 | 20 | 168 | 6.4 | 16.1 | 0.00 | 0.00 | 0.00 | 60 | 1007.2 |
| 20260506041708 | 20 | 175 | 4.8 | 16.1 | 0.00 | 0.00 | 0.00 | 59 | 1007.3 |
| 20260506040709 | 20 | 178 | 4.8 | 16.1 | 0.00 | 0.00 | 0.00 | 58 | 1007.1 |
| 20260506040206 | 21 | 144 | 8.0 | 16.1 | 0.00 | 0.00 | 0.00 | 58 | 1007.2 |
| 20260506035707 | 21 | 156 | 4.8 | 19.3 | 0.00 | 0.00 | 0.00 | 58 | 1007.1 |
| 20260506035206 | 21 | 215 | 8.0 | 19.3 | 0.00 | 0.00 | 0.00 | 57 | 1007.1 |
| 20260506034706 | 21 | 180 | 9.7 | 19.3 | 0.00 | 0.00 | 0.00 | 57 | 1007.2 |
| 20260506034206 | 21 | 175 | 8.0 | 19.3 | 0.00 | 0.00 | 0.00 | 57 | 1007.2 |
| 20260506033707 | 21 | 169 | 9.7 | 22.5 | 0.00 | 0.00 | 0.00 | 57 | 1007.2 |
| 20260506033207 | 20 | 10 | 11.3 | 22.5 | 0.00 | 0.00 | 0.00 | 57 | 1007.1 |
| 20260506032706 | 20 | 155 | 9.7 | 19.3 | 0.00 | 0.00 | 0.00 | 57 | 1007.1 |
| 20260506031706 | 20 | 165 | 4.8 | 14.5 | 0.00 | 0.00 | 0.00 | 58 | 1007.0 |
| 20260506031207 | 20 | 157 | 3.2 | 9.7 | 0.00 | 0.00 | 0.00 | 58 | 1006.9 |
| 20260506030706 | 20 | 169 | 6.4 | 11.3 | 0.00 | 0.00 | 0.00 | 58 | 1006.9 |
| 20260506030206 | 20 | 156 | 3.2 | 11.3 | 0.00 | 0.00 | 0.00 | 58 | 1006.8 |
| 20260506025706 | 20 | 139 | 4.8 | 11.3 | 0.00 | 0.00 | 0.00 | 58 | 1006.9 |
| 20260506025207 | 20 | 152 | 4.8 | 14.5 | 0.00 | 0.00 | 0.00 | 58 | 1007.0 |
| 20260506024206 | 20 | 145 | 6.4 | 14.5 | 0.00 | 0.00 | 0.00 | 58 | 1007.1 |
| 20260506023706 | 20 | 127 | 4.8 | 14.5 | 0.00 | 0.00 | 0.00 | 57 | 1007.0 |
| 20260506023207 | 20 | 163 | 8.0 | 14.5 | 0.00 | 0.00 | 0.00 | 57 | 1007.0 |
| 20260506022706 | 20 | 145 | 4.8 | 19.3 | 0.00 | 0.00 | 0.00 | 57 | 1007.1 |
| 20260506022206 | 20 | 146 | 8.0 | 19.3 | 0.00 | 0.00 | 0.00 | 57 | 1007.0 |
| 20260506021706 | 21 | 156 | 4.8 | 19.3 | 0.00 | 0.00 | 0.00 | 57 | 1006.9 |
| 20260506021207 | 21 | 146 | 8.0 | 24.1 | 0.00 | 0.00 | 0.00 | 56 | 1006.9 |
| 20260506020706 | 21 | 175 | 8.0 | 24.1 | 0.00 | 0.00 | 0.00 | 56 | 1007.0 |
| 20260506015707 | 21 | 123 | 8.0 | 22.5 | 0.00 | 0.00 | 0.00 | 56 | 1006.9 |
| 20260506014707 | 21 | 148 | 8.0 | 20.9 | 0.00 | 0.00 | 0.00 | 55 | 1006.8 |
| 20260506014207 | 21 | 142 | 9.7 | 20.9 | 0.00 | 0.00 | 0.00 | 55 | 1006.8 |
| 20260506013706 | 21 | 148 | 6.4 | 19.3 | 0.00 | 0.00 | 0.00 | 54 | 1006.7 |
| 20260506013206 | 21 | 128 | 8.0 | 16.1 | 0.00 | 0.00 | 0.00 | 54 | 1006.7 |
| 20260506012707 | 21 | 145 | 6.4 | 19.3 | 0.00 | 0.00 | 0.00 | 53 | 1006.7 |
| 20260506012206 | 21 | 144 | 8.0 | 19.3 | 0.00 | 0.00 | 0.00 | 53 | 1006.6 |
| 20260506011706 | 21 | 153 | 9.7 | 19.3 | 0.00 | 0.00 | 0.00 | 53 | 1006.5 |
| 20260506011206 | 21 | 145 | 9.7 | 24.1 | 0.00 | 0.00 | 0.00 | 53 | 1006.5 |
| 20260506010706 | 21 | 143 | 9.7 | 24.1 | 0.00 | 0.00 | 0.00 | 52 | 1006.4 |
| 20260506010206 | 21 | 152 | 8.0 | 25.7 | 0.00 | 0.00 | 0.00 | 52 | 1006.3 |
| 20260506005706 | 21 | 119 | 9.7 | 25.7 | 0.00 | 0.00 | 0.00 | 52 | 1006.2 |
| 20260506005206 | 21 | 146 | 9.7 | 27.4 | 0.00 | 0.00 | 0.00 | 52 | 1006.1 |
| 20260506004206 | 22 | 145 | 14.5 | 24.1 | 0.00 | 0.00 | 0.00 | 50 | 1006.1 |
| 20260506003706 | 22 | 150 | 9.7 | 24.1 | 0.00 | 0.00 | 0.00 | 49 | 1006.0 |
| 20260506003207 | 23 | 141 | 11.3 | 24.1 | 0.00 | 0.00 | 0.00 | 46 | 1006.0 |
| 20260506002706 | 23 | 140 | 11.3 | 20.9 | 0.00 | 0.00 | 0.00 | 44 | 1005.9 |
| 20260506001706 | 23 | 145 | 4.8 | 19.3 | 0.00 | 0.00 | 0.00 | 42 | 1005.6 |
| 20260506001206 | 23 | 138 | 6.4 | 19.3 | 0.00 | 0.00 | 0.00 | 42 | 1005.7 |
| 20260506000706 | 23 | 152 | 8.0 | 19.3 | 0.00 | 0.00 | 0.00 | 42 | 1005.6 |
| 20260506000206 | 23 | 169 | 6.4 | 16.1 | 0.00 | 0.00 | 0.00 | 43 | 1005.6 |
| 20260505234706 | 23 | 161 | 4.8 | 16.1 | 0.00 | 0.00 | 0.00 | 43 | 1005.3 |
| 20260505234207 | 23 | 141 | 8.0 | 19.3 | 0.00 | 0.00 | 0.00 | 43 | 1005.2 |
| 20260505233706 | 24 | 150 | 9.7 | 19.3 | 0.00 | 0.00 | 0.00 | 43 | 1005.1 |
| 20260505233206 | 25 | 143 | 11.3 | 20.9 | 0.00 | 0.00 | 0.00 | 41 | 1005.2 |
| 20260505232706 | 25 | 148 | 9.7 | 20.9 | 0.00 | 0.00 | 0.00 | 39 | 1005.0 |
| 20260505232205 | 26 | 134 | 8.0 | 20.9 | 0.00 | 0.00 | 0.00 | 38 | 1004.8 |
| 20260505231706 | 26 | 157 | 4.8 | 16.1 | 0.00 | 0.00 | 0.00 | 36 | 1004.7 |
| 20260505231207 | 27 | 143 | 8.0 | 29.0 | 0.00 | 0.00 | 0.00 | 34 | 1004.6 |
| 20260505230706 | 27 | 192 | 8.0 | 32.2 | 0.00 | 0.00 | 0.00 | 27 | 1004.6 |
| 20260505230206 | 27 | 193 | 12.9 | 32.2 | 0.00 | 0.00 | 0.00 | 26 | 1004.4 |
| 20260505225706 | 27 | 182 | 12.9 | 33.8 | 0.00 | 0.00 | 0.00 | 26 | 1004.5 |
| 20260505225206 | 27 | 185 | 16.1 | 33.8 | 0.00 | 0.00 | 0.00 | 26 | 1004.4 |
| 20260505224707 | 27 | 192 | 19.3 | 33.8 | 0.00 | 0.00 | 0.00 | 25 | 1004.4 |
| 20260505224206 | 28 | 170 | 9.7 | 27.4 | 0.00 | 0.00 | 0.00 | 25 | 1004.3 |
| 20260505223206 | 28 | 215 | 17.7 | 32.2 | 0.00 | 0.00 | 0.00 | 25 | 1004.4 |
| 20260505222706 | 28 | 204 | 9.7 | 29.0 | 0.00 | 0.00 | 0.00 | 25 | 1004.3 |
| 20260505222206 | 28 | 232 | 12.9 | 29.0 | 0.00 | 0.00 | 0.00 | 26 | 1004.3 |
| 20260505221205 | 28 | 209 | 9.7 | 27.4 | 0.00 | 0.00 | 0.00 | 29 | 1004.2 |
| 20260505220706 | 28 | 177 | 12.9 | 27.4 | 0.00 | 0.00 | 0.00 | 30 | 1004.1 |
| 20260505220206 | 28 | 180 | 11.3 | 27.4 | 0.00 | 0.00 | 0.00 | 30 | 1004.0 |
| 20260505215706 | 28 | 149 | 14.5 | 27.4 | 0.00 | 0.00 | 0.00 | 30 | 1003.9 |
| 20260505214706 | 28 | 205 | 16.1 | 33.8 | 0.00 | 0.00 | 0.00 | 28 | 1003.9 |
| 20260505214205 | 28 | 208 | 16.1 | 33.8 | 0.00 | 0.00 | 0.00 | 27 | 1003.8 |
| 20260505213707 | 28 | 210 | 9.7 | 33.8 | 0.00 | 0.00 | 0.00 | 28 | 1003.9 |
| 20260505213205 | 28 | 178 | 14.5 | 33.8 | 0.00 | 0.00 | 0.00 | 28 | 1003.7 |
| 20260505212706 | 28 | 172 | 14.5 | 37.0 | 0.00 | 0.00 | 0.00 | 28 | 1003.7 |
| 20260505212205 | 28 | 176 | 14.5 | 37.0 | 0.00 | 0.00 | 0.00 | 28 | 1003.6 |
| 20260505210705 | 28 | 185 | 9.7 | 38.6 | 0.00 | 0.00 | 0.00 | 27 | 1003.6 |
| 20260505210206 | 29 | 213 | 12.9 | 41.8 | 0.00 | 0.00 | 0.00 | 27 | 1003.6 |
| 20260505205206 | 29 | 229 | 9.7 | 33.8 | 0.00 | 0.00 | 0.00 | 25 | 1003.6 |
| 20260505204705 | 29 | 193 | 16.1 | 33.8 | 0.00 | 0.00 | 0.00 | 25 | 1003.6 |
| 20260505203206 | 29 | 194 | 14.5 | 37.0 | 0.00 | 0.00 | 0.00 | 26 | 1003.8 |
| 20260505202705 | 29 | 177 | 6.4 | 32.2 | 0.00 | 0.00 | 0.00 | 26 | 1003.8 |
| 20260505202206 | 29 | 184 | 9.7 | 27.4 | 0.00 | 0.00 | 0.00 | 27 | 1003.7 |
| 20260505201706 | 29 | 179 | 14.5 | 32.2 | 0.00 | 0.00 | 0.00 | 27 | 1003.8 |
| 20260505201205 | 29 | 145 | 11.3 | 32.2 | 0.00 | 0.00 | 0.00 | 26 | 1003.9 |
| 20260505200706 | 29 | 157 | 16.1 | 32.2 | 0.00 | 0.00 | 0.00 | 26 | 1004.0 |
| 20260505200206 | 27 | 191 | 9.7 | 32.2 | 0.00 | 0.00 | 0.00 | 31 | 1004.1 |
| 20260505194706 | 27 | 140 | 8.0 | 19.3 | 0.00 | 0.00 | 0.00 | 34 | 1004.2 |
| 20260505194206 | 27 | 151 | 8.0 | 19.3 | 0.00 | 0.00 | 0.00 | 36 | 1004.3 |
| 20260505193707 | 26 | 145 | 8.0 | 19.3 | 0.00 | 0.00 | 0.00 | 37 | 1004.3 |
| 20260505193258 | 26 | 152 | 9.7 | 16.1 | 0.00 | 0.00 | 0.00 | 37 | 1004.5 |
| 20260505190706 | 27 | 138 | 8.0 | 19.3 | 0.00 | 0.00 | 0.00 | 38 | 1005.0 |
| 20260505190206 | 27 | 240 | 4.8 | 19.3 | 0.00 | 0.00 | 0.00 | 38 | 1005.1 |
| 20260505185706 | 26 | 152 | 6.4 | 19.3 | 0.00 | 0.00 | 0.00 | 39 | 1005.2 |
| 20260505185205 | 27 | 145 | 8.0 | 19.3 | 0.00 | 0.00 | 0.00 | 38 | 1005.3 |
| 20260505184706 | 26 | 137 | 8.0 | 19.3 | 0.00 | 0.00 | 0.00 | 39 | 1005.3 |
| 20260505184206 | 26 | 160 | 9.7 | 19.3 | 0.00 | 0.00 | 0.00 | 39 | 1005.4 |
| 20260505183706 | 26 | 144 | 11.3 | 20.9 | 0.00 | 0.00 | 0.00 | 39 | 1005.4 |
| 20260505183206 | 26 | 134 | 11.3 | 20.9 | 0.00 | 0.00 | 0.00 | 38 | 1005.5 |
| 20260505182705 | 26 | 135 | 8.0 | 19.3 | 0.00 | 0.00 | 0.00 | 39 | 1005.5 |
| 20260505182205 | 26 | 161 | 8.0 | 19.3 | 0.00 | 0.00 | 0.00 | 39 | 1005.5 |
| 20260505181706 | 26 | 138 | 8.0 | 19.3 | 0.00 | 0.00 | 0.00 | 39 | 1005.6 |
| 20260505181205 | 26 | 156 | 8.0 | 19.3 | 0.00 | 0.00 | 0.00 | 39 | 1005.4 |
| 20260505180206 | 26 | 121 | 9.7 | 27.4 | 0.00 | 0.00 | 0.00 | 39 | 1005.7 |
| 20260505175705 | 27 | 150 | 9.7 | 27.4 | 0.00 | 0.00 | 0.00 | 38 | 1005.7 |
| 20260505175206 | 27 | 162 | 9.7 | 19.3 | 0.00 | 0.00 | 0.00 | 39 | 1005.8 |
| 20260505174705 | 27 | 134 | 6.4 | 16.1 | 0.00 | 0.00 | 0.00 | 38 | 1005.9 |
| 20260505174206 | 26 | 171 | 8.0 | 19.3 | 0.00 | 0.00 | 0.00 | 39 | 1005.8 |
| 20260505173705 | 26 | 139 | 9.7 | 20.9 | 0.00 | 0.00 | 0.00 | 40 | 1005.8 |
| 20260505173206 | 26 | 154 | 9.7 | 20.9 | 0.00 | 0.00 | 0.00 | 40 | 1006.0 |
| 20260505172706 | 26 | 156 | 9.7 | 20.9 | 0.00 | 0.00 | 0.00 | 40 | 1006.0 |
| 20260505172205 | 26 | 133 | 9.7 | 19.3 | 0.00 | 0.00 | 0.00 | 40 | 1006.0 |
| 20260505171706 | 26 | 159 | 8.0 | 19.3 | 0.00 | 0.00 | 0.00 | 40 | 1006.1 |
| 20260505171205 | 26 | 143 | 9.7 | 19.3 | 0.00 | 0.00 | 0.00 | 41 | 1006.0 |
| 20260505170706 | 25 | 151 | 11.3 | 24.1 | 0.00 | 0.00 | 0.00 | 40 | 1006.0 |
| 20260505170206 | 25 | 137 | 11.3 | 24.1 | 0.00 | 0.00 | 0.00 | 41 | 1006.1 |
| 20260505165705 | 25 | 138 | 9.7 | 24.1 | 0.00 | 0.00 | 0.00 | 41 | 1006.2 |
| 20260505165205 | 25 | 149 | 8.0 | 20.9 | 0.00 | 0.00 | 0.00 | 41 | 1006.3 |
| 20260505164705 | 25 | 124 | 9.7 | 20.9 | 0.00 | 0.00 | 0.00 | 41 | 1006.4 |
| 20260505164205 | 25 | 165 | 3.2 | 19.3 | 0.00 | 0.00 | 0.00 | 41 | 1006.4 |
| 20260505163205 | 25 | 156 | 6.4 | 16.1 | 0.00 | 0.00 | 0.00 | 42 | 1006.6 |
| 20260505162705 | 25 | 141 | 8.0 | 19.3 | 0.00 | 0.00 | 0.00 | 43 | 1006.6 |
| 20260505162205 | 25 | 147 | 9.7 | 20.9 | 0.00 | 0.00 | 0.00 | 42 | 1006.7 |
| 20260505161705 | 25 | 178 | 9.7 | 20.9 | 0.00 | 0.00 | 0.00 | 43 | 1006.8 |
| 20260505161205 | 25 | 150 | 9.7 | 20.9 | 0.00 | 0.00 | 0.00 | 42 | 1006.8 |
| 20260505160706 | 26 | 147 | 9.7 | 20.9 | 0.00 | 0.00 | 0.00 | 41 | 1006.9 |
| 20260505152706 | 25 | 123 | 4.8 | 14.5 | 0.00 | 0.00 | 0.00 | 44 | 1007.0 |
| 20260505152205 | 24 | 147 | 3.2 | 14.5 | 0.00 | 0.00 | 0.00 | 45 | 1007.1 |
| 20260505151706 | 24 | 144 | 8.0 | 14.5 | 0.00 | 0.00 | 0.00 | 46 | 1007.1 |
| 20260505151205 | 23 | 127 | 6.4 | 14.5 | 0.00 | 0.00 | 0.00 | 46 | 1007.2 |
| 20260505150706 | 23 | 137 | 8.0 | 14.5 | 0.00 | 0.00 | 0.00 | 46 | 1007.2 |
| 20260505150205 | 23 | 141 | 4.8 | 14.5 | 0.00 | 0.00 | 0.00 | 47 | 1007.3 |